Elko, NV

10:22 AM PST on December 07, 2016 (GMT -0800)
Elko Regional

Weather History for KEKO - April, 2013

Change the Weather History Date:

Sunday, April 7, 2013

  Actual Average Record
Temperature  
Mean Temperature 48 °F 43 °F  
Max Temperature 59 °F 57 °F 80 °F (1930)
Min Temperature 36 °F 30 °F 15 °F (1929)
Degree Days  
Heating Degree Days 17 22  
Month to date heating degree days 118 156  
Since 1 July heating degree days 5907 6133  
Cooling Degree Days 0 0  
Month to date cooling degree days 0 0  
Year to date cooling degree days 0 0  
Moisture  
Dew Point 26 °F    
Average Humidity 45    
Maximum Humidity 70    
Minimum Humidity 20    
Precipitation  
Precipitation T in 0.04 in 0.75 in (1900)
Month to date precipitation 0.31 0.22  
Year to date precipitation 2.03 3.18  
Snow  
Snow T in 0.20 in 3.30 in (2001)
Month to date snowfall T 1.1  
Since 1 July snowfall 40.9 38.7  
Snow Depth 0.00 in    
Sea Level Pressure  
Sea Level Pressure 29.75 in    
Wind  
Wind Speed 13 mph (WSW)    
Max Wind Speed 32 mph    
Max Gust Speed 38 mph    
Visibility 10 miles    
Events      
T = Trace of Precipitation, MM = Missing Value Source: NWS Daily Summary

Daily Weather History Graph

Daily Weather History Graph

Search for Another Location

Airport or City:

Trip Planner

Search our weather history database for the weather conditions in past years. The results will help you decide how hot, cold, wet, or windy it might be!

Date:

Astronomy

Apr. 07, 2013 Rise Set
Actual Time 6:16 AM PDT 7:14 PM PDT
Civil Twilight 5:48 AM PDT 7:42 PM PDT
Nautical Twilight 5:15 AM PDT 8:16 PM PDT
Astronomical Twilight 4:40 AM PDT 8:50 PM PDT
Moon 4:37 AM PDT 4:50 PM PDT
Length of Visible Light 13h 54m
Length of Day
12h 58m
Waning Crescent, 7% of the Moon is Illuminated
Apr 7
Waning Crescent
Apr 10
New
Apr 18
First Quarter
Apr 25
Full
May 2
Last Quarter

Hourly Weather History & Observations

Time (PDT) Temp. Windchill Dew Point Humidity Pressure Visibility Wind Dir Wind Speed Gust Speed Precip Events Conditions
12:56 AM 42.1 °F 37.1 °F 28.0 °F 58% 29.90 in 10.0 mi West 8.1 mph - N/A   Partly Cloudy
1:56 AM 37.9 °F 33.5 °F 28.0 °F 68% 29.91 in 10.0 mi SSW 5.8 mph - N/A   Clear
2:56 AM 39.9 °F 35.1 °F 30.0 °F 68% 29.89 in 10.0 mi WSW 6.9 mph - N/A   Partly Cloudy
3:56 AM 42.1 °F 37.7 °F 28.0 °F 58% 29.86 in 10.0 mi SW 6.9 mph - N/A   Scattered Clouds
4:56 AM 37.0 °F 31.0 °F 27.0 °F 67% 29.86 in 10.0 mi SW 8.1 mph - N/A   Clear
5:56 AM 43.0 °F 38.8 °F 28.0 °F 56% 29.85 in 10.0 mi West 6.9 mph - N/A   Overcast
6:56 AM 44.1 °F 42.5 °F 28.9 °F 55% 29.88 in 10.0 mi SW 3.5 mph - N/A   Overcast
7:56 AM 46.9 °F - 30.0 °F 52% 29.88 in 10.0 mi SSW 8.1 mph - N/A   Overcast
8:56 AM 50.0 °F - 30.0 °F 46% 29.87 in 10.0 mi SW 17.3 mph 24.2 mph N/A   Partly Cloudy
9:56 AM 51.1 °F - 28.9 °F 43% 29.88 in 10.0 mi SW 15.0 mph 26.5 mph N/A   Overcast
10:56 AM 54.0 °F - 28.9 °F 38% 29.86 in 10.0 mi SW 18.4 mph 27.6 mph N/A   Mostly Cloudy
11:56 AM 55.0 °F - 26.1 °F 33% 29.81 in 10.0 mi SW 16.1 mph 27.6 mph N/A   Mostly Cloudy
12:56 PM 59.0 °F - 27.0 °F 29% 29.76 in 10.0 mi WSW 20.7 mph 27.6 mph N/A   Partly Cloudy
1:56 PM 57.0 °F - 24.1 °F 28% 29.75 in 10.0 mi WSW 18.4 mph 29.9 mph N/A   Scattered Clouds
2:56 PM 59.0 °F - 23.0 °F 25% 29.69 in 10.0 mi WSW 28.8 mph 35.7 mph N/A   Clear
3:56 PM 57.0 °F - 21.9 °F 26% 29.67 in 10.0 mi WSW 19.6 mph 32.2 mph N/A   Clear
4:56 PM 57.9 °F - 19.9 °F 23% 29.64 in 10.0 mi WSW 23.0 mph 32.2 mph N/A   Mostly Cloudy
5:56 PM 55.9 °F - 16.0 °F 21% 29.61 in 10.0 mi WSW 24.2 mph 32.2 mph N/A   Scattered Clouds
6:56 PM 54.0 °F - 18.0 °F 24% 29.59 in 10.0 mi West 13.8 mph - N/A   Clear
7:56 PM 53.1 °F - 18.0 °F 25% 29.56 in 10.0 mi West 8.1 mph - N/A   Clear
8:56 PM 51.1 °F - 21.9 °F 32% 29.56 in 10.0 mi WSW 9.2 mph - N/A   Overcast
9:28 PM 46.4 °F 39.0 °F 30.2 °F 53% 29.65 in 10.0 mi NW 19.6 mph 27.6 mph N/A   Mostly Cloudy
9:56 PM 43.0 °F 34.5 °F 32.0 °F 65% 29.62 in 10.0 mi NW 19.6 mph 27.6 mph N/A   Mostly Cloudy
10:56 PM 41.0 °F 39.0 °F 32.0 °F 70% 29.61 in 10.0 mi NNW 3.5 mph - N/A   Mostly Cloudy
11:56 PM 39.0 °F 30.6 °F 30.0 °F 70% 29.60 in 10.0 mi NE 15.0 mph - N/A   Mostly Cloudy